Zurück zum Katalog

STARLINK-32960

AktivKommunikationVLEO
NORAD 63197·PAYLOAD·🇺🇸 United States

Gestartet Mar 13, 2025 von Cape Canaveral Space Force Station

Loading…

Nächste Überflüge (nächste 24 Stunden)

TLE

AktuellSource: CelesTrak SupGP

Epoche: Sep 14, 2026, 22:18 UTC

1 63197C 25048Q   26257.92965278  .00009441  00000+0  34203-3 0  2574
2 63197  43.0030  96.7615 0001325 275.8766  26.1966 15.27564854    12

Verfolge STARLINK-32960 in Echtzeit mit AllMySat

Download on the App Store